Location: Franzen
(48.6167°N, 15.3833°E)
Time: 04:16:19
(UTC+00:00)

deb Explorer IX - All Passes

Search period start: 26 July 2021 00:00
Search period end: 05 August 2021 00:00
Orbit: 542 x 1095 km, 38.8° (Epoch: 25 July)

Date Brightness Start Highest point End Pass type
(mag) Time Alt. Az. Time Alt. Az. Time Alt. Az.
26 Jul - 14:33:41 10° SSW 14:38:34 26° SSE 14:43:58 10° ESE daylight
26 Jul - 16:19:02 10° WSW 16:24:49 36° S 16:31:09 10° ESE daylight
26 Jul - 18:05:30 10° WSW 18:11:14 30° SSW 18:17:19 10° SE daylight
26 Jul - 19:53:42 10° WSW 19:57:19 15° SSW 20:00:58 10° S visible
27 Jul - 14:09:45 10° SSW 14:14:26 25° SSE 14:19:39 10° ESE daylight
27 Jul - 15:55:02 10° WSW 16:00:39 35° S 16:06:52 10° ESE daylight
27 Jul - 17:41:27 10° WSW 17:47:03 29° SSW 17:53:03 10° SE daylight
27 Jul - 19:29:36 10° WSW 19:33:08 14° SSW 19:36:44 10° S visible
28 Jul - 13:45:50 10° SSW 13:50:20 24° SSE 13:55:21 10° ESE daylight
28 Jul - 15:31:04 10° WSW 15:36:30 35° S 15:42:34 10° ESE daylight
28 Jul - 17:17:25 10° WSW 17:22:53 29° SSW 17:28:46 10° SE daylight
28 Jul - 19:05:31 10° WSW 19:08:57 14° SSW 19:12:28 10° S daylight
29 Jul - 13:21:55 10° SSW 13:26:13 24° SSE 13:31:01 10° ESE daylight
29 Jul - 15:07:05 10° WSW 15:12:20 34° S 15:18:16 10° ESE daylight
29 Jul - 16:53:23 10° WSW 16:58:41 28° SSW 17:04:28 10° SE daylight
29 Jul - 18:41:28 10° WSW 18:44:46 14° SSW 18:48:10 10° S daylight
30 Jul - 12:58:01 10° SSW 13:02:07 23° SSE 13:06:42 10° ESE daylight
30 Jul - 14:43:07 10° WSW 14:48:12 33° S 14:53:57 10° ESE daylight
30 Jul - 16:29:22 10° WSW 16:34:30 27° SSW 16:40:10 10° SE daylight
30 Jul - 18:17:27 10° WSW 18:20:35 14° SSW 18:23:49 10° S daylight
31 Jul - 12:34:07 10° SSW 12:38:02 22° SSE 12:42:23 10° ESE daylight
31 Jul - 14:19:10 10° WSW 14:24:03 32° S 14:29:37 10° ESE daylight
31 Jul - 16:05:22 10° WSW 16:10:20 27° SSW 16:15:50 10° SE daylight
31 Jul - 17:53:28 10° WSW 17:56:24 13° SSW 17:59:26 10° S daylight
01 Aug - 12:10:13 10° SSW 12:13:56 21° SSE 12:18:03 10° ESE daylight
01 Aug - 13:55:13 10° WSW 13:59:55 31° S 14:05:18 10° ESE daylight
01 Aug - 15:41:23 10° WSW 15:46:10 26° SSW 15:51:29 10° SE daylight
01 Aug - 17:29:30 10° SW 17:32:12 13° SSW 17:35:01 10° S daylight
02 Aug - 11:46:20 10° SSW 11:49:51 20° SSE 11:53:44 10° ESE daylight
02 Aug - 13:31:16 10° WSW 13:35:48 30° S 13:40:58 10° ESE daylight
02 Aug - 15:17:24 10° WSW 15:22:00 25° SSW 15:27:08 10° SE daylight
02 Aug - 17:05:35 10° SW 17:08:02 12° SSW 17:10:34 10° S daylight
03 Aug - 11:22:26 10° SSW 11:25:46 19° SSE 11:29:25 10° ESE daylight
03 Aug - 13:07:20 10° SW 13:11:40 29° S 13:16:38 10° ESE daylight
03 Aug - 14:53:26 10° WSW 14:57:50 24° SSW 15:02:46 10° SE daylight
03 Aug - 16:41:43 10° SW 16:43:51 12° SSW 16:46:03 10° S daylight
04 Aug - 10:58:32 10° SSW 11:01:41 18° SSE 11:05:06 10° ESE daylight
04 Aug - 12:43:23 10° SW 12:47:33 28° S 12:52:18 10° ESE daylight
04 Aug - 14:29:29 10° WSW 14:33:41 24° SSW 14:38:24 10° SE daylight
04 Aug - 16:17:56 10° SW 16:19:40 11° SSW 16:21:28 10° SSW daylight
